DW4657 Weather Reports


Display with metric or nautical units.
time (UTC)temp
F
wind
direction
speed
MPH
gust
MPH
rain 1hr
in
rain 24hr
in
rain mn
in
humidity
%
barometer
mb
20260507090519 50 0 0.0 2.0 0.10 0.30 0.21 93 1007.1
20260507090038 50 0 0.0 3.0 0.11 0.30 0.21 93 1006.9
20260507085518 50 27 0.0 3.0 0.12 0.29 0.20 93 1006.5
20260507085019 50 0 0.0 1.0 0.12 0.29 0.20 92 1006.6
20260507084544 50 0 0.0 1.0 0.13 0.29 0.20 92 1006.8
20260507084019 50 355 0.0 2.0 0.14 0.28 0.19 92 1006.8
20260507083520 51 0 0.0 2.0 0.17 0.28 0.19 92 1006.7
20260507083038 51 6 0.0 7.0 0.18 0.27 0.18 92 1006.7
20260507082519 51 266 0.0 7.0 0.18 0.27 0.18 92 1006.8
20260507082020 52 0 0.0 3.0 0.18 0.27 0.18 92 1006.3
20260507081538 52 0 0.0 3.0 0.16 0.25 0.16 92 1006.9
20260507081021 53 325 0.0 2.0 0.14 0.23 0.14 92 1007.1
20260507080518 53 270 0.0 1.0 0.11 0.20 0.11 92 1006.9
20260507080044 53 0 0.0 1.0 0.09 0.18 0.09 92 1007.0
20260507075519 53 262 0.0 1.0 0.08 0.17 0.08 92 1006.9
20260507075019 54 0 0.0 2.0 0.07 0.16 0.07 92 1006.7
20260507074540 54 0 0.0 2.0 0.07 0.16 0.07 92 1006.5
20260507074019 54 314 1.0 3.0 0.04 0.13 0.04 92 1006.4
20260507073519 55 316 1.0 3.0 0.02 0.11 0.02 93 1005.9
20260507073042 55 298 0.0 2.0 0.00 0.09 0.00 93 1006.0
20260507072520 55 0 0.0 2.0 0.00 0.09 0.00 93 1005.5
20260507072019 56 307 0.0 1.0 0.00 0.09 0.00 94 1005.4
20260507071538 56 0 0.0 0.0 0.00 0.09 0.00 94 1005.6
20260507071019 56 0 0.0 0.0 0.00 0.09 0.00 94 1005.6
20260507070519 56 0 0.0 0.0 0.00 0.09 0.00 94 1005.4
20260507070058 56 0 0.0 0.0 0.00 0.09 0.00 94 1005.6
20260507065518 56 0 0.0 0.0 0.00 0.09 0.00 94 1005.6
20260507065019 56 0 0.0 0.0 0.00 0.09 0.00 94 1005.6
20260507064546 56 0 0.0 0.0 0.00 0.09 0.00 94 1005.6
20260507064019 56 0 0.0 0.0 0.00 0.09 0.00 94 1005.5
20260507063519 56 0 0.0 1.0 0.00 0.09 0.00 94 1005.6
20260507063037 56 0 0.0 1.0 0.00 0.09 0.00 94 1005.6
20260507062519 56 0 0.0 0.0 0.00 0.09 0.00 94 1005.7
20260507062019 56 0 0.0 0.0 0.00 0.09 0.00 94 1005.5
20260507061534 56 0 0.0 1.0 0.00 0.09 0.00 94 1005.8
20260507061019 56 0 0.0 1.0 0.00 0.09 0.00 94 1005.9
20260507060522 56 150 0.0 1.0 0.00 0.09 0.00 94 1006.0
20260507060035 56 0 0.0 1.0 0.00 0.09 0.00 94 1006.1
20260507055519 56 0 0.0 3.0 0.00 0.09 0.00 94 1006.0
20260507055018 56 0 1.0 3.0 0.00 0.09 0.00 94 1006.2
20260507054559 56 0 0.0 6.0 0.00 0.09 0.00 94 1006.2
20260507054022 56 0 2.0 6.0 0.00 0.09 0.00 94 1006.3
20260507053519 56 212 1.0 4.0 0.00 0.09 0.00 94 1006.2
20260507053038 56 219 0.0 3.0 0.00 0.09 0.00 94 1006.3
20260507052519 56 0 0.0 4.0 0.00 0.09 0.00 94 1006.4
20260507052019 56 224 0.0 4.0 0.00 0.09 0.00 94 1006.2
20260507051541 56 202 1.0 4.0 0.00 0.09 0.00 94 1006.4
20260507051019 56 237 1.0 4.0 0.00 0.09 0.00 94 1006.4
20260507050519 56 225 1.0 4.0 0.00 0.09 0.00 94 1006.5
20260507050043 56 0 1.0 4.0 0.00 0.09 0.00 94 1006.6
20260507045523 56 157 1.0 4.0 0.00 0.09 0.00 94 1006.6
20260507045019 56 0 0.0 4.0 0.00 0.09 0.00 94 1006.6
20260507044539 56 225 1.0 4.0 0.00 0.09 0.00 94 1006.6
20260507044018 56 255 0.0 3.0 0.00 0.09 0.00 94 1006.7
20260507043519 56 0 1.0 3.0 0.00 0.09 0.00 94 1006.6
20260507043039 56 189 1.0 3.0 0.00 0.09 0.00 94 1006.5
20260507042519 56 0 1.0 4.0 0.00 0.09 0.00 94 1006.4
20260507042018 56 221 1.0 4.0 0.00 0.09 0.00 94 1006.2
20260507041542 56 0 0.0 3.0 0.00 0.09 0.00 94 1006.3
20260507041019 56 262 1.0 3.0 0.00 0.09 0.00 94 1006.4
20260507040519 56 220 0.0 3.0 0.00 0.09 0.00 94 1006.4
20260507040042 56 210 1.0 6.0 0.00 0.09 0.00 94 1006.2
20260507035519 56 202 2.0 7.0 0.00 0.09 0.09 94 1006.2
20260507035018 56 142 3.0 8.0 0.00 0.09 0.09 94 1006.4
20260507034538 56 156 1.0 8.0 0.00 0.09 0.09 94 1006.5
20260507034019 56 162 3.0 8.0 0.00 0.09 0.09 94 1006.7
20260507033521 56 219 3.0 9.0 0.00 0.09 0.09 94 1006.6
20260507033037 55 210 2.0 9.0 0.00 0.09 0.09 94 1006.7
20260507032519 55 188 2.0 13.0 0.00 0.09 0.09 94 1006.5
20260507032019 55 181 4.0 13.0 0.00 0.09 0.09 94 1006.5
20260507031537 55 200 3.0 8.0 0.00 0.09 0.09 94 1006.6
20260507031024 55 213 1.0 6.0 0.00 0.09 0.09 94 1006.6
20260507030519 55 224 2.0 8.0 0.00 0.09 0.09 94 1006.3
20260507030039 55 218 2.0 10.0 0.00 0.09 0.09 94 1006.4
20260507025519 55 159 4.0 10.0 0.00 0.09 0.09 94 1006.3
20260507025018 55 153 3.0 9.0 0.00 0.09 0.09 94 1006.4
20260507024537 55 109 3.0 9.0 0.00 0.09 0.09 93 1006.4
20260507024018 55 259 3.0 10.0 0.00 0.09 0.09 93 1006.5
20260507023522 55 219 3.0 10.0 0.00 0.09 0.09 93 1006.4
20260507023037 55 213 3.0 8.0 0.00 0.09 0.09 93 1006.3
20260507022520 55 217 2.0 9.0 0.00 0.09 0.09 93 1006.4
20260507022019 55 250 3.0 9.0 0.00 0.09 0.09 93 1006.5
20260507021538 55 226 2.0 8.0 0.00 0.09 0.09 93 1006.6
20260507021021 55 195 3.0 8.0 0.00 0.09 0.09 93 1006.5
20260507020520 55 208 3.0 7.0 0.00 0.09 0.09 93 1006.6
20260507020036 56 201 3.0 7.0 0.00 0.09 0.09 93 1006.7
20260507015518 56 156 3.0 8.0 0.00 0.09 0.09 93 1006.7
20260507015019 56 82 2.0 9.0 0.00 0.09 0.09 93 1006.9
20260507014547 55 189 4.0 10.0 0.00 0.09 0.09 93 1006.9
20260507014019 55 188 4.0 10.0 0.00 0.09 0.09 93 1006.7
20260507013520 55 226 3.0 8.0 0.00 0.09 0.09 93 1006.9
20260507013045 56 213 2.0 10.0 0.00 0.09 0.09 93 1007.0
20260507012521 56 172 4.0 10.0 0.00 0.09 0.09 93 1006.9
20260507012023 55 120 3.0 9.0 0.00 0.09 0.09 93 1007.0
20260507011543 55 250 3.0 9.0 0.00 0.09 0.09 93 1007.1
20260507011019 56 222 4.0 9.0 0.00 0.09 0.09 93 1007.2
20260507010520 56 205 4.0 9.0 0.00 0.09 0.09 93 1007.1
20260507010043 56 221 4.0 10.0 0.00 0.09 0.09 93 1007.1
20260507005519 55 101 4.0 10.0 0.01 0.09 0.09 93 1007.2
20260507005021 55 46 4.0 9.0 0.01 0.09 0.09 93 1007.1
20260507004537 55 165 2.0 11.0 0.02 0.09 0.09 93 1007.1
20260507004020 55 176 4.0 11.0 0.02 0.09 0.09 93 1007.1
20260507003519 55 225 4.0 10.0 0.02 0.09 0.09 93 1007.0
20260507003032 55 182 2.0 10.0 0.02 0.09 0.09 93 1006.9
20260507002524 55 130 4.0 15.0 0.02 0.09 0.09 93 1007.0
20260507002019 56 217 5.0 15.0 0.02 0.09 0.09 93 1007.1
20260507001553 56 222 4.0 13.0 0.02 0.09 0.09 93 1007.0
20260507001018 56 196 5.0 14.0 0.02 0.09 0.09 93 1007.0
20260507000522 56 219 5.0 14.0 0.02 0.09 0.09 93 1007.0
20260507000037 56 259 5.0 14.0 0.02 0.09 0.09 93 1006.9
20260506235519 56 188 6.0 13.0 0.01 0.08 0.08 93 1006.9
20260506235018 56 250 4.0 11.0 0.01 0.08 0.08 93 1006.9
20260506234549 56 203 5.0 12.0 0.00 0.07 0.07 92 1006.9
20260506234020 56 172 4.0 14.0 0.00 0.07 0.07 92 1006.9
20260506233519 56 230 6.0 14.0 0.00 0.07 0.07 92 1007.0
20260506233108 56 206 5.0 15.0 0.00 0.07 0.07 92 1007.1
20260506232520 56 157 6.0 15.0 0.01 0.07 0.07 92 1006.9
20260506232018 56 203 6.0 13.0 0.01 0.07 0.07 92 1007.1
20260506231537 56 110 6.0 13.0 0.02 0.07 0.07 92 1007.0
20260506231019 56 194 6.0 13.0 0.02 0.07 0.07 92 1007.1
20260506230517 56 253 4.0 13.0 0.03 0.07 0.07 92 1007.1
20260506230036 56 86 5.0 13.0 0.03 0.07 0.07 92 1007.0
20260506225518 56 221 4.0 13.0 0.03 0.07 0.07 92 1007.0
20260506225019 56 202 4.0 10.0 0.03 0.07 0.07 92 1006.9
20260506224534 56 193 6.0 12.0 0.03 0.07 0.07 92 1006.9
20260506224018 56 33 5.0 12.0 0.03 0.07 0.07 91 1007.0
20260506223518 56 185 5.0 10.0 0.03 0.07 0.07 91 1007.0
20260506223038 56 209 5.0 14.0 0.03 0.07 0.07 91 1006.9
20260506222519 56 215 4.0 14.0 0.02 0.06 0.06 91 1007.2
20260506222019 56 184 4.0 12.0 0.02 0.06 0.06 91 1007.3
20260506221550 56 232 3.0 12.0 0.02 0.05 0.05 91 1007.4
20260506221018 56 184 5.0 17.0 0.01 0.04 0.04 91 1007.4
20260506220518 56 133 6.0 17.0 0.01 0.04 0.04 90 1007.5
20260506220043 57 215 6.0 14.0 0.01 0.04 0.04 90 1007.5
20260506215519 57 176 6.0 16.0 0.01 0.04 0.04 90 1007.5
20260506215018 57 184 5.0 16.0 0.01 0.04 0.04 90 1007.5
20260506214537 57 231 6.0 14.0 0.01 0.04 0.04 90 1007.6
20260506214017 57 165 6.0 20.0 0.01 0.04 0.04 90 1007.5
20260506213520 57 160 8.0 20.0 0.01 0.04 0.04 90 1007.5
20260506213041 57 193 8.0 16.0 0.01 0.04 0.04 90 1007.5
20260506212519 57 227 7.0 12.0 0.01 0.04 0.04 89 1007.7
20260506212019 57 224 6.0 16.0 0.00 0.03 0.03 89 1007.7
20260506211545 57 167 8.0 16.0 0.00 0.03 0.03 89 1007.7
20260506211019 57 163 6.0 18.0 0.00 0.03 0.03 89 1007.8
20260506210519 57 127 5.0 18.0 0.00 0.03 0.03 89 1007.8
20260506210045 57 174 5.0 14.0 0.01 0.03 0.03 89 1007.9
20260506205518 57 109 5.0 14.0 0.01 0.03 0.03 88 1007.8
20260506205018 57 239 7.0 18.0 0.02 0.03 0.03 88 1007.8
20260506204538 57 188 7.0 19.0 0.02 0.03 0.03 88 1008.0
20260506204019 57 220 5.0 19.0 0.03 0.03 0.03 88 1007.9
20260506203519 57 231 6.0 17.0 0.03 0.03 0.03 88 1007.9
20260506203038 58 170 7.0 16.0 0.03 0.03 0.03 88 1007.9
20260506202602 58 219 4.0 17.0 0.03 0.03 0.03 89 1007.9
20260506202018 58 181 5.0 17.0 0.03 0.03 0.03 88 1008.1
20260506201540 58 219 5.0 12.0 0.03 0.03 0.03 88 1008.2
20260506201020 58 179 5.0 12.0 0.03 0.03 0.03 88 1008.0
20260506200521 59 162 5.0 9.0 0.03 0.03 0.03 87 1008.2
20260506200037 59 183 4.0 10.0 0.02 0.02 0.02 86 1008.1
20260506195521 59 193 3.0 13.0 0.01 0.01 0.01 85 1008.2
20260506195018 59 181 6.0 14.0 0.01 0.01 0.01 85 1008.3
20260506194537 60 162 6.0 14.0 0.01 0.01 0.01 83 1008.4
20260506194019 60 135 5.0 12.0 0.00 0.00 0.00 83 1008.5
20260506193520 61 252 4.0 13.0 0.00 0.00 0.00 82 1008.4
20260506193044 61 165 4.0 14.0 0.00 0.00 0.00 81 1008.4
20260506192522 61 218 5.0 15.0 0.00 0.00 0.00 80 1008.2
20260506192019 61 217 6.0 15.0 0.00 0.00 0.00 79 1008.4
20260506191534 62 217 4.0 21.0 0.00 0.00 0.00 79 1008.5
20260506191019 62 272 7.0 21.0 0.00 0.00 0.00 78 1008.5
20260506190522 62 289 5.0 17.0 0.00 0.00 0.00 78 1008.5
20260506190037 62 200 7.0 17.0 0.00 0.00 0.00 78 1008.5
20260506185518 62 157 7.0 15.0 0.00 0.00 0.00 78 1008.4
20260506185020 62 220 6.0 17.0 0.00 0.00 0.00 78 1008.1
20260506184539 62 158 7.0 17.0 0.00 0.00 0.00 78 1008.3
20260506184021 62 225 6.0 16.0 0.00 0.00 0.00 77 1008.6
20260506183521 62 182 7.0 19.0 0.00 0.00 0.00 77 1008.6
20260506183033 63 142 9.0 22.0 0.00 0.00 0.00 77 1008.6
20260506182518 63 187 7.0 22.0 0.00 0.00 0.00 77 1008.6
20260506182022 63 212 8.0 18.0 0.00 0.00 0.00 76 1008.5
20260506181553 64 160 5.0 15.0 0.00 0.00 0.00 76 1008.7
20260506181019 64 179 6.0 18.0 0.00 0.00 0.00 76 1008.8
20260506180519 64 193 6.0 18.0 0.00 0.00 0.00 75 1008.9
20260506180039 64 214 8.0 16.0 0.00 0.00 0.00 75 1009.1
20260506175521 64 303 7.0 18.0 0.00 0.00 0.00 75 1009.1
20260506175020 65 181 7.0 21.0 0.00 0.00 0.00 75 1009.1
20260506174538 65 207 8.0 21.0 0.00 0.00 0.00 75 1009.2
20260506174021 65 231 7.0 16.0 0.00 0.00 0.00 74 1009.3
20260506173522 65 195 8.0 17.0 0.00 0.00 0.00 74 1009.4
20260506173103 65 212 7.0 19.0 0.00 0.00 0.00 74 1009.4
20260506172518 65 141 9.0 25.0 0.00 0.00 0.00 74 1009.2
20260506172053 65 156 8.0 25.0 0.00 0.00 0.00 74 1009.3
20260506171542 66 311 6.0 21.0 0.00 0.00 0.00 74 1009.4
20260506171020 66 253 7.0 18.0 0.00 0.00 0.00 73 1009.2
20260506170518 66 105 8.0 18.0 0.00 0.00 0.00 73 1009.2
20260506170051 65 207 7.0 20.0 0.00 0.00 0.00 74 1009.4
20260506165519 65 174 9.0 20.0 0.00 0.00 0.00 74 1009.4
20260506165021 65 153 6.0 18.0 0.00 0.00 0.00 74 1009.6
20260506164535 65 220 7.0 18.0 0.00 0.00 0.00 73 1009.7
20260506164018 65 204 7.0 20.0 0.00 0.00 0.00 73 1009.6
20260506163519 65 142 8.0 20.0 0.00 0.00 0.00 74 1009.7
20260506163050 65 185 5.0 20.0 0.00 0.00 0.00 74 1009.7
20260506162518 65 181 10.0 25.0 0.00 0.00 0.00 74 1009.8
20260506162022 65 231 7.0 25.0 0.00 0.00 0.00 74 1009.9
20260506161540 65 184 9.0 19.0 0.00 0.00 0.00 74 1009.9
20260506161020 65 152 5.0 18.0 0.00 0.00 0.00 74 1010.0
20260506160522 65 192 8.0 17.0 0.00 0.00 0.00 73 1010.1
20260506160042 65 188 7.0 17.0 0.00 0.00 0.00 73 1010.2
20260506155518 65 195 6.0 17.0 0.00 0.00 0.00 73 1010.3
20260506155018 66 222 7.0 18.0 0.00 0.00 0.00 73 1010.3
20260506154547 66 114 8.0 18.0 0.00 0.00 0.00 73 1010.4
20260506154018 66 212 7.0 20.0 0.00 0.00 0.00 73 1010.4
20260506153518 65 226 9.0 20.0 0.00 0.00 0.00 73 1010.6
20260506153038 65 204 9.0 16.0 0.00 0.00 0.00 73 1010.6
20260506152518 65 224 8.0 16.0 0.00 0.00 0.00 74 1010.8
20260506152019 65 145 4.0 19.0 0.00 0.00 0.00 75 1010.7
20260506151539 64 185 10.0 19.0 0.00 0.00 0.00 75 1010.8
20260506151017 65 209 6.0 14.0 0.00 0.00 0.00 75 1010.7
20260506150518 65 160 7.0 15.0 0.00 0.00 0.00 74 1010.6
20260506150039 65 200 3.0 15.0 0.00 0.00 0.00 75 1010.7
20260506145520 64 252 7.0 17.0 0.00 0.00 0.00 74 1010.7
20260506145018 64 206 7.0 17.0 0.00 0.00 0.00 74 1010.5
20260506144544 65 213 6.0 16.0 0.00 0.00 0.00 74 1010.5
20260506144020 65 96 5.0 17.0 0.00 0.00 0.00 75 1010.3
20260506143519 64 171 6.0 17.0 0.00 0.00 0.00 75 1010.4
20260506143037 64 173 5.0 21.0 0.00 0.00 0.00 75 1010.5
20260506142518 64 229 7.0 21.0 0.00 0.00 0.00 74 1010.4
20260506142018 65 155 5.0 11.0 0.00 0.00 0.00 74 1010.5
20260506141534 65 253 5.0 14.0 0.00 0.00 0.00 75 1010.3
20260506141018 64 193 5.0 16.0 0.00 0.00 0.00 75 1010.3
20260506140519 64 87 6.0 16.0 0.00 0.00 0.00 75 1010.3
20260506140039 65 167 6.0 13.0 0.00 0.00 0.00 75 1010.3
20260506135519 64 20 5.0 13.0 0.00 0.00 0.00 76 1010.4
20260506135020 64 163 6.0 13.0 0.00 0.00 0.00 76 1010.6
20260506134538 63 203 6.0 17.0 0.00 0.00 0.00 77 1010.7
20260506134022 63 185 5.0 17.0 0.00 0.00 0.00 77 1011.0
20260506133520 63 181 5.0 14.0 0.00 0.00 0.00 78 1011.0
20260506133052 62 201 5.0 16.0 0.00 0.00 0.00 78 1011.1
20260506132518 62 160 7.0 16.0 0.00 0.00 0.00 78 1011.1
20260506132021 62 212 5.0 14.0 0.00 0.00 0.00 79 1011.1
20260506131538 61 53 4.0 14.0 0.00 0.00 0.00 80 1011.1
20260506131019 61 224 5.0 14.0 0.00 0.00 0.00 80 1011.1
20260506130518 61 234 6.0 14.0 0.00 0.00 0.00 80 1011.1
20260506130039 61 110 4.0 13.0 0.00 0.00 0.00 81 1011.2
20260506125518 60 188 5.0 13.0 0.00 0.00 0.00 82 1011.3
20260506125019 60 224 6.0 13.0 0.00 0.00 0.00 82 1011.0
20260506124536 60 188 5.0 17.0 0.00 0.00 0.00 82 1011.1
20260506124018 60 219 6.0 17.0 0.00 0.00 0.00 83 1011.1
20260506123518 59 205 7.0 15.0 0.00 0.00 0.00 83 1011.2
20260506123036 59 203 7.0 13.0 0.00 0.00 0.00 82 1011.0
20260506122518 59 75 6.0 13.0 0.00 0.00 0.00 83 1010.9
20260506122021 59 235 3.0 10.0 0.00 0.00 0.00 84 1011.2
20260506121539 58 166 5.0 12.0 0.00 0.00 0.00 84 1011.3
20260506121019 58 162 3.0 12.0 0.00 0.00 0.00 85 1011.3
20260506120519 58 247 5.0 14.0 0.00 0.00 0.00 85 1011.6
20260506120038 58 129 6.0 14.0 0.00 0.00 0.00 84 1011.6
20260506115517 58 207 5.0 10.0 0.00 0.00 0.00 85 1011.5
20260506115017 58 142 3.0 14.0 0.00 0.00 0.00 85 1011.5
20260506114539 58 51 4.0 14.0 0.00 0.00 0.00 85 1011.6
20260506114018 58 248 3.0 14.0 0.00 0.00 0.00 86 1011.7
20260506113520 58 68 5.0 14.0 0.00 0.00 0.00 86 1011.7
20260506113034 57 241 6.0 12.0 0.00 0.00 0.00 86 1011.7
20260506112517 57 174 4.0 10.0 0.00 0.00 0.00 87 1011.7
20260506112019 57 252 4.0 14.0 0.00 0.00 0.00 86 1011.7
20260506111538 57 200 4.0 14.0 0.00 0.00 0.00 87 1011.6
20260506111018 57 196 5.0 10.0 0.00 0.00 0.00 87 1011.6
20260506110519 57 243 3.0 15.0 0.00 0.00 0.00 87 1011.5
20260506110043 57 227 5.0 15.0 0.00 0.00 0.00 87 1011.6
20260506105519 57 168 5.0 11.0 0.00 0.00 0.00 87 1011.7
20260506105020 57 148 4.0 11.0 0.00 0.00 0.00 87 1011.7
20260506104604 57 180 4.0 10.0 0.00 0.00 0.00 88 1011.7
20260506104020 57 299 4.0 9.0 0.00 0.00 0.00 88 1011.6
20260506103518 57 101 3.0 9.0 0.00 0.00 0.00 88 1011.6
20260506103041 57 85 4.0 12.0 0.00 0.00 0.00 88 1011.6
20260506102519 56 29 4.0 12.0 0.00 0.00 0.00 88 1011.6
20260506102018 57 166 3.0 9.0 0.00 0.00 0.00 88 1011.5
20260506101536 56 172 3.0 9.0 0.00 0.00 0.00 88 1011.4
20260506101020 56 155 4.0 10.0 0.00 0.00 0.00 89 1011.5
20260506100524 56 212 3.0 10.0 0.00 0.00 0.00 89 1011.4
20260506100040 56 184 5.0 13.0 0.00 0.00 0.00 89 1011.3
20260506095518 56 217 5.0 13.0 0.00 0.00 0.00 89 1011.2
20260506095018 56 136 3.0 11.0 0.00 0.00 0.00 89 1011.4
20260506094539 56 155 2.0 9.0 0.00 0.00 0.00 88 1011.3
20260506094020 56 195 4.0 11.0 0.00 0.00 0.00 88 1011.3
20260506093520 56 176 3.0 13.0 0.00 0.00 0.00 88 1011.3
20260506093037 56 221 4.0 13.0 0.00 0.00 0.00 88 1011.2
20260506092520 56 188 5.0 9.0 0.00 0.00 0.00 88 1011.3
20260506092020 56 171 5.0 10.0 0.00 0.00 0.00 88 1011.2
20260506091538 56 25 4.0 11.0 0.00 0.00 0.00 88 1011.3
20260506091021 56 200 3.0 12.0 0.00 0.00 0.00 88 1011.1